K6MBY Weather Reports


Display with metric or nautical units.
time (UTC)temp
F
wind
direction
speed
MPH
gust
MPH
rain 1hr
in
rain 24hr
in
rain mn
in
humidity
%
barometer
mb
20260505073419 51 269 4.0 7.0 0.00 0.00 0.00 95 1015.2
20260505072916 51 283 5.0 7.0 0.00 0.00 0.00 95 1015.3
20260505072411 51 293 4.0 8.0 0.00 0.00 0.00 95 1015.1
20260505071908 51 264 5.0 10.0 0.00 0.00 0.00 95 1015.1
20260505071404 51 295 8.0 11.0 0.00 0.00 0.00 95 1015.2
20260505070902 51 294 5.0 13.0 0.00 0.00 0.00 95 1015.1
20260505070358 51 280 4.0 8.0 0.00 0.00 0.00 95 1015.0
20260505065854 51 293 6.0 14.0 0.00 0.00 0.00 95 1014.8
20260505065351 51 209 7.0 11.0 0.00 0.00 0.00 95 1014.9
20260505064848 51 282 5.0 10.0 0.00 0.00 0.00 95 1014.8
20260505064345 51 310 7.0 17.0 0.00 0.00 0.00 95 1014.8
20260505063843 51 288 6.0 20.0 0.00 0.00 0.00 94 1014.6
20260505063339 51 286 9.0 20.0 0.00 0.00 0.00 95 1014.7
20260505062836 51 281 14.0 22.0 0.00 0.00 0.00 94 1014.6
20260505062333 51 299 7.0 11.0 0.00 0.00 0.00 94 1014.7
20260505061830 51 264 5.0 8.0 0.00 0.00 0.00 94 1014.7
20260505061328 51 283 7.0 11.0 0.00 0.00 0.00 94 1014.5
20260505060825 51 263 3.0 20.0 0.00 0.00 0.00 94 1014.5
20260505060322 51 251 8.0 13.0 0.00 0.00 0.00 94 1014.4
20260505055818 51 315 7.0 11.0 0.00 0.00 0.00 94 1014.3
20260505055314 51 304 7.0 14.0 0.00 0.00 0.00 94 1014.2
20260505054812 51 280 5.0 15.0 0.00 0.00 0.00 94 1014.2
20260505054308 51 284 7.0 17.0 0.00 0.00 0.00 95 1014.0
20260505053807 51 198 8.0 15.0 0.00 0.00 0.00 95 1014.0
20260505053303 51 234 5.0 9.0 0.00 0.00 0.00 95 1014.0
20260505052800 51 246 5.0 16.0 0.00 0.00 0.00 95 1014.1
20260505052257 51 272 12.0 15.0 0.00 0.00 0.00 94 1013.9
20260505051754 51 275 4.0 9.0 0.00 0.00 0.00 94 1014.0
20260505051252 51 272 5.0 13.0 0.00 0.00 0.00 94 1013.9
20260505050750 51 226 6.0 15.0 0.00 0.00 0.00 94 1013.7
20260505050248 51 229 8.0 18.0 0.00 0.00 0.00 93 1013.6
20260505041718 52 288 9.0 16.0 0.00 0.00 0.00 90 1013.5
20260505041215 52 202 7.0 15.0 0.00 0.00 0.00 90 1013.3
20260505040712 52 321 9.0 16.0 0.00 0.00 0.00 89 1013.2
20260505040209 53 271 11.0 16.0 0.00 0.00 0.00 89 1013.5
20260505035706 53 250 12.0 16.0 0.00 0.00 0.00 88 1013.3
20260505035202 53 296 10.0 17.0 0.00 0.00 0.00 88 1013.0
20260505034659 53 300 8.0 15.0 0.00 0.00 0.00 88 1013.1
20260505034156 53 260 10.0 15.0 0.00 0.00 0.00 87 1013.0
20260505033652 53 269 7.0 11.0 0.00 0.00 0.00 87 1013.1
20260505033151 54 322 8.0 15.0 0.00 0.00 0.00 86 1012.9
20260505032648 54 290 6.0 14.0 0.00 0.00 0.00 84 1013.1
20260505032144 55 262 9.0 16.0 0.00 0.00 0.00 83 1012.9
20260505031642 55 261 9.0 14.0 0.00 0.00 0.00 82 1013.0
20260505031138 55 291 7.0 16.0 0.00 0.00 0.00 82 1013.0
20260505030635 55 304 8.0 14.0 0.00 0.00 0.00 82 1013.0
20260505030130 55 294 7.0 9.0 0.00 0.00 0.00 82 1013.1
20260505025627 55 271 9.0 15.0 0.00 0.00 0.00 81 1013.1
20260505025126 55 317 7.0 20.0 0.00 0.00 0.00 81 1012.9
20260505024622 55 262 7.0 14.0 0.00 0.00 0.00 80 1012.9
20260505024120 56 285 7.0 15.0 0.00 0.00 0.00 79 1012.8
20260505023617 57 297 6.0 15.0 0.00 0.00 0.00 78 1013.0
20260505023114 56 304 9.0 13.0 0.00 0.00 0.00 78 1012.9
20260505022612 56 270 5.0 16.0 0.00 0.00 0.00 78 1013.0
20260505022108 57 281 8.0 15.0 0.00 0.00 0.00 78 1012.9
20260505021605 57 239 8.0 15.0 0.00 0.00 0.00 76 1012.9
20260505021102 58 278 7.0 14.0 0.00 0.00 0.00 75 1013.0
20260505020602 58 282 7.0 15.0 0.00 0.00 0.00 74 1012.8
20260505020059 59 237 7.0 16.0 0.00 0.00 0.00 73 1013.1
20260505015556 58 283 11.0 14.0 0.00 0.00 0.00 73 1013.1
20260505015053 58 303 7.0 10.0 0.00 0.00 0.00 75 1013.0
20260505014549 58 294 7.0 13.0 0.00 0.00 0.00 73 1013.2
20260505014047 57 273 6.0 14.0 0.00 0.00 0.00 75 1013.2
20260505013544 57 234 9.0 13.0 0.00 0.00 0.00 76 1013.2
20260505013041 58 292 9.0 18.0 0.00 0.00 0.00 76 1013.2
20260505012539 58 286 7.0 15.0 0.00 0.00 0.00 75 1013.2
20260505012036 59 264 6.0 11.0 0.00 0.00 0.00 74 1013.4
20260505011531 59 260 5.0 11.0 0.00 0.00 0.00 73 1013.4
20260505011029 59 275 7.0 10.0 0.00 0.00 0.00 72 1013.3
20260505010524 60 298 12.0 17.0 0.00 0.00 0.00 70 1013.5
20260505010021 60 253 7.0 13.0 0.00 0.00 0.00 70 1013.6
20260505005517 60 235 10.0 14.0 0.00 0.00 0.00 70 1013.3
20260505005015 60 251 8.0 22.0 0.00 0.00 0.00 69 1013.4
20260505004512 59 277 8.0 11.0 0.00 0.00 0.00 72 1013.5
20260505004008 60 239 11.0 14.0 0.00 0.00 0.00 71 1013.5
20260505003505 60 250 10.0 15.0 0.00 0.00 0.00 70 1013.3
20260505003002 62 282 5.0 8.0 0.00 0.00 0.00 67 1013.2
20260505002458 62 278 6.0 13.0 0.00 0.00 0.00 67 1013.4
20260505001956 62 339 10.0 15.0 0.00 0.00 0.00 66 1013.4
20260505001454 61 278 7.0 11.0 0.00 0.00 0.00 69 1013.3
20260505000950 60 242 6.0 9.0 0.00 0.00 0.00 70 1013.4
20260505000448 60 271 5.0 10.0 0.00 0.00 0.00 71 1013.5
20260504235945 60 299 8.0 11.0 0.00 0.00 0.00 72 1013.4
20260504235442 60 288 7.0 11.0 0.00 0.00 0.00 73 1013.6
20260504234939 61 255 4.0 9.0 0.00 0.00 0.00 72 1013.6
20260504234436 60 252 9.0 15.0 0.00 0.00 0.00 72 1013.6
20260504233932 61 301 8.0 14.0 0.00 0.00 0.00 71 1013.3
20260504233428 62 206 3.0 13.0 0.00 0.00 0.00 70 1013.5
20260504232925 63 264 7.0 10.0 0.00 0.00 0.00 68 1013.5
20260504232422 62 299 4.0 11.0 0.00 0.00 0.00 70 1013.5
20260504231919 62 254 10.0 13.0 0.00 0.00 0.00 70 1013.5
20260504231415 60 280 7.0 13.0 0.00 0.00 0.00 72 1013.5
20260504230912 61 287 7.0 10.0 0.00 0.00 0.00 73 1013.8
20260504230409 61 308 4.0 9.0 0.00 0.00 0.00 73 1013.6
20260504225908 62 275 7.0 10.0 0.00 0.00 0.00 71 1013.7
20260504225404 61 302 6.0 11.0 0.00 0.00 0.00 73 1013.8
20260504224902 62 275 7.0 10.0 0.00 0.00 0.00 71 1013.9
20260504224358 62 291 6.0 9.0 0.00 0.00 0.00 71 1014.1
20260504223855 62 261 5.0 8.0 0.00 0.00 0.00 72 1013.9
20260504223351 61 308 5.0 13.0 0.00 0.00 0.00 73 1014.1
20260504222847 63 285 6.0 10.0 0.00 0.00 0.00 70 1013.9
20260504222344 62 298 6.0 14.0 0.00 0.00 0.00 69 1014.1
20260504221843 62 210 4.0 8.0 0.00 0.00 0.00 70 1014.1
20260504221339 63 289 3.0 11.0 0.00 0.00 0.00 70 1013.9
20260504220836 62 220 5.0 11.0 0.00 0.00 0.00 71 1014.0
20260504220333 62 254 4.0 6.0 0.00 0.00 0.00 71 1014.0
20260504215830 62 272 5.0 7.0 0.00 0.00 0.00 71 1014.0
20260504215326 62 221 3.0 10.0 0.00 0.00 0.00 71 1014.2
20260504214822 62 270 6.0 8.0 0.00 0.00 0.00 72 1014.2
20260504214320 62 274 4.0 9.0 0.00 0.00 0.00 70 1014.3
20260504213816 62 317 6.0 10.0 0.00 0.00 0.00 69 1014.3
20260504213312 61 262 6.0 8.0 0.00 0.00 0.00 71 1014.4
20260504212810 62 303 4.0 8.0 0.00 0.00 0.00 70 1014.5
20260504212306 63 286 6.0 9.0 0.00 0.00 0.00 68 1014.4
20260504211804 62 233 2.0 9.0 0.00 0.00 0.00 69 1014.4
20260504211259 64 274 3.0 6.0 0.00 0.00 0.00 65 1014.4
20260504210757 64 257 3.0 6.0 0.00 0.00 0.00 65 1014.4
20260504210254 64 279 5.0 6.0 0.00 0.00 0.00 65 1014.4
20260504205751 64 270 3.0 5.0 0.00 0.00 0.00 65 1014.4
20260504205249 62 288 5.0 7.0 0.00 0.00 0.00 65 1014.3
20260504204747 63 344 6.0 8.0 0.00 0.00 0.00 66 1014.5
20260504204245 63 288 3.0 7.0 0.00 0.00 0.00 66 1014.3
20260504203744 64 267 2.0 5.0 0.00 0.00 0.00 65 1014.3
20260504203241 63 233 4.0 6.0 0.00 0.00 0.00 64 1014.4
20260504202741 63 261 1.0 6.0 0.00 0.00 0.00 65 1014.5
20260504202238 64 263 3.0 3.0 0.00 0.00 0.00 62 1014.3
20260504201735 63 261 3.0 6.0 0.00 0.00 0.00 63 1014.4
20260504201232 64 258 2.0 6.0 0.00 0.00 0.00 64 1014.3
20260504200730 63 293 3.0 7.0 0.00 0.00 0.00 65 1014.3
20260504200226 64 245 3.0 6.0 0.00 0.00 0.00 65 1014.4
20260504195722 63 243 2.0 6.0 0.00 0.00 0.00 64 1014.5
20260504195219 63 306 4.0 8.0 0.00 0.00 0.00 60 1014.5
20260504194716 64 269 2.0 5.0 0.00 0.00 0.00 59 1014.3
20260504194212 65 335 5.0 7.0 0.00 0.00 0.00 60 1014.5
20260504193708 64 312 4.0 6.0 0.00 0.00 0.00 61 1014.5
20260504193206 64 250 3.0 7.0 0.00 0.00 0.00 61 1014.4
20260504192704 64 310 5.0 6.0 0.00 0.00 0.00 58 1014.3
20260504192202 64 296 4.0 7.0 0.00 0.00 0.00 62 1014.5
20260504191700 68 305 6.0 10.0 0.00 0.00 0.00 58 1014.4
20260504191156 68 346 6.0 8.0 0.00 0.00 0.00 57 1014.2
20260504190651 69 354 8.0 10.0 0.00 0.00 0.00 54 1014.2
20260504190149 71 16 7.0 8.0 0.00 0.00 0.00 52 1014.2
20260504185645 71 326 6.0 7.0 0.00 0.00 0.00 52 1014.2
20260504185142 71 349 4.0 7.0 0.00 0.00 0.00 55 1014.2
20260504184638 69 20 6.0 7.0 0.00 0.00 0.00 54 1014.0
20260504184133 69 14 4.0 6.0 0.00 0.00 0.00 54 1014.1
20260504183630 69 10 5.0 6.0 0.00 0.00 0.00 57 1014.1
20260504183128 69 354 6.0 8.0 0.00 0.00 0.00 57 1014.4
20260504182626 68 17 5.0 8.0 0.00 0.00 0.00 56 1014.4
20260504182123 68 0 5.0 7.0 0.00 0.00 0.00 55 1014.1
20260504181620 67 359 5.0 8.0 0.00 0.00 0.00 56 1014.5
20260504181117 68 350 6.0 7.0 0.00 0.00 0.00 55 1014.5
20260504180617 68 19 6.0 7.0 0.00 0.00 0.00 55 1014.5
20260504180115 67 352 7.0 8.0 0.00 0.00 0.00 56 1014.3
20260504175612 68 28 7.0 8.0 0.00 0.00 0.00 55 1014.6
20260504175108 68 331 3.0 5.0 0.00 0.00 0.00 56 1014.4
20260504174607 68 299 4.0 7.0 0.00 0.00 0.00 57 1014.2
20260504174103 67 15 5.0 7.0 0.00 0.00 0.00 56 1014.5
20260504173600 67 359 5.0 8.0 0.00 0.00 0.00 57 1014.4
20260504173058 66 7 5.0 7.0 0.00 0.00 0.00 58 1014.5
20260504172553 66 339 7.0 9.0 0.00 0.00 0.00 57 1014.4
20260504172050 66 349 5.0 9.0 0.00 0.00 0.00 57 1014.4
20260504171547 67 22 8.0 8.0 0.00 0.00 0.00 57 1014.5
20260504171044 67 1 4.0 7.0 0.00 0.00 0.00 57 1014.5
20260504170539 66 354 5.0 6.0 0.00 0.00 0.00 56 1014.6
20260504150924 69 326 2.0 3.0 0.00 0.00 0.00 47 1013.9
20260504150420 69 193 0.0 2.0 0.00 0.00 0.00 46 1013.9
20260504140847 63 248 2.0 5.0 0.00 0.00 0.00 51 1013.5
20260504140343 62 240 3.0 3.0 0.00 0.00 0.00 52 1013.5
20260504130812 59 224 5.0 6.0 0.00 0.00 0.00 55 1013.1
20260504130308 59 217 5.0 7.0 0.00 0.00 0.00 55 1013.2
20260504120231 57 218 3.0 5.0 0.00 0.00 0.00 68 1013.0
20260504110659 57 196 2.0 2.0 0.00 0.00 0.00 69 1012.9
20260504110155 56 195 2.0 2.0 0.00 0.00 0.00 69 1013.0
20260504100119 58 192 1.0 2.0 0.00 0.00 0.00 59 1012.8
20260504081512 64 227 6.0 7.0 0.00 0.00 0.00 44 1012.6
20260504081008 65 229 6.0 8.0 0.00 0.00 0.00 45 1012.6
20260504080504 64 238 7.0 8.0 0.00 0.00 0.00 44 1012.6